Location: الشقيري
(17.1356°N, 42.8272°E)
Time: 16:25:37
(UTC+00:00)

N. Korean satellite - Pass Details

Date: 22 November 2019
Orbit: 456 x 506 km, 97.2° (Epoch: 06 December)

Event Time Altitude Azimuth Distance (km) Brightness Sun altitude
Rises 01:51:01 0° 43° (NE) 2,562 10.6 -20.3°
Reaches altitude 10° 01:54:37 10° 81° (E) 1,664 10.2 -19.5°
Maximum altitude 01:55:34 11° 97° (E) 1,608 10.4 -19.3°
Drops below altitude 10° 01:56:30 10° 112° (ESE) 1,655 10.5 -19.0°
Sets 02:00:02 0° 151° (SSE) 2,516 10.9 -18.2°
